Location: Unspecified
(43.4354°N, 0.0000°E)
Time: 10:17:47
(UTC+00:00)

A-11 Canister half - Pass Details

Date: 28 June 2019
Orbit: 1514 x 1685 km, 47.2° (Epoch: 16 July)

Event Time Altitude Azimuth Distance (km) Brightness Sun altitude
Rises 13:19:21 0° 288° (WNW) 4,870 11.8 64.5°
Reaches altitude 10° 13:22:32 10° 289° (WNW) 3,861 11.4 64.1°
Maximum altitude 13:32:24 84° 18° (NNE) 1,596 10.3 62.7°
Drops below altitude 10° 13:41:53 10° 108° (ESE) 3,720 11.0 61.4°
Sets 13:44:53 0° 109° (ESE) 4,686 11.4 61.0°
